Location: Chakepay
(13.3931°S, 72.1925°W)
Time: 10:11:50
(UTC+00:00)

Cosmos 1607 - Pass Details

Date: 15 November 2019
Orbit: 928 x 974 km, 65.0° (Epoch: 09 December)

Event Time Altitude Azimuth Distance (km) Brightness Sun altitude
Rises 00:55:47 0° 336° (NNW) 3,627 6.9 -27.7°
Reaches altitude 10° 00:58:19 10° 334° (NNW) 2,691 6.3 -28.2°
Maximum altitude 01:04:38 80° 248° (WSW) 989 4.0 -29.6°
Drops below altitude 10° 01:11:03 10° 160° (SSE) 2,728 6.4 -30.9°
Sets 01:13:38 0° 159° (SSE) 3,679 7.1 -31.4°
